logo
Search for airport 
image banner adimage banner adimage banner ad
image banner ad

EHKX - K12-K (Oil Platform)

Located in , Netherlands

ICAO - , IATA -

Data provided by Airmate  

General information

Coordinates: N53°25'22" E3°57'37"
Elevation is feet MSL.
 
View others Airports in Noord-Holland

Operational data

Special qualification required
Current time UTC:
Current local time:
Weather at : EHKV - K14-Fa-1C (Oil Platform) ( 28 km )
METAR: EHKV 161825Z AUTO VRB10KT 7000 FEW003 BKN006 BKN007 15/14 Q1009
View NOTAMs / SUP AIP / TFR affecting this airport [VIEW]
Communications frequencies: [VIEW]

Runways:

Airport contact information

Address: Netherlands

Satellite view of EHKX